DW3766 Weather Reports


Display with metric or nautical units.
time (UTC)temp
F
wind
direction
speed
MPH
gust
MPH
rain 1hr
in
rain 24hr
in
rain mn
in
humidity
%
barometer
mb
20260901012132 91 88 0.0 1.0 0.00 0.00 0.00 1013.2
20260901011702 91 88 0.0 4.0 0.00 0.00 0.00 1013.2
20260901011130 91 88 1.0 4.0 0.00 0.00 0.00 1013.1
20260901010707 91 98 2.0 5.0 0.00 0.00 0.00 1013.1
20260901010119 92 98 2.0 5.0 0.00 0.00 0.00 1013.1
20260901005656 92 73 3.0 7.0 0.00 0.00 0.00 1013.1
20260901005211 92 84 2.0 7.0 0.00 0.00 0.00 1013.1
20260901004641 93 105 3.0 8.0 0.00 0.00 0.00 1013.1
20260901004149 93 96 2.0 8.0 0.00 0.00 0.00 1013.1
20260901003625 93 122 2.0 8.0 0.00 0.00 0.00 1013.1
20260901003154 93 115 2.0 5.0 0.00 0.00 0.00 1013.0
20260901002629 94 134 3.0 5.0 0.00 0.00 0.00 1013.0
20260901002154 94 116 3.0 7.0 0.00 0.00 0.00 1013.0
20260901001634 94 149 4.0 7.0 0.00 0.00 0.00 1012.9
20260901001142 94 151 2.0 7.0 0.00 0.00 0.00 1012.9
20260901000618 94 140 5.0 8.0 0.00 0.00 0.00 1012.9
20260901000126 95 154 5.0 11.0 0.00 0.00 0.00 1012.8
20260831235700 95 148 6.0 11.0 0.00 0.00 0.00 1012.8
20260831235209 95 153 5.0 9.0 0.00 0.00 0.00 1012.7
20260831234720 95 139 4.0 7.0 0.00 0.00 0.00 1012.7
20260831234130 95 114 4.0 9.0 0.00 0.00 0.00 1012.8
20260831233637 95 110 5.0 9.0 0.00 0.00 0.00 1012.8
20260831233130 95 105 5.0 8.0 0.00 0.00 0.00 1012.8
20260831232658 95 145 4.0 11.0 0.00 0.00 0.00 1012.8
20260831232113 95 142 7.0 11.0 0.00 0.00 0.00 1012.7
20260831231720 95 128 4.0 11.0 0.00 0.00 0.00 1012.8
20260831231136 96 167 8.0 11.0 0.00 0.00 0.00 1012.9
20260831230644 95 100 6.0 12.0 0.00 0.00 0.00 1012.8
20260831230151 95 126 6.0 12.0 0.00 0.00 0.00 1012.9
20260831225632 95 108 7.0 12.0 0.00 0.00 0.00 1013.0
20260831225201 95 105 8.0 12.0 0.00 0.00 0.00 1012.9
20260831224637 95 113 5.0 8.0 0.00 0.00 0.00 1012.9
20260831224147 95 96 4.0 7.0 0.00 0.00 0.00 1012.9
20260831223616 95 127 4.0 9.0 0.00 0.00 0.00 1012.9
20260831223153 95 135 5.0 10.0 0.00 0.00 0.00 1013.1
20260831222620 95 128 6.0 13.0 0.00 0.00 0.00 1013.1
20260831222157 95 115 7.0 12.0 0.00 0.00 0.00 1013.1
20260831221630 94 255 3.0 7.0 0.00 0.00 0.00 1013.1
20260831221205 93 140 2.0 3.0 0.00 0.00 0.00 1013.1
20260831220634 93 123 2.0 7.0 0.00 0.00 0.00 1013.3
20260831220150 93 119 4.0 9.0 0.00 0.00 0.00 1013.4
20260831215657 94 107 5.0 9.0 0.00 0.00 0.00 1013.5
20260831215234 94 132 4.0 8.0 0.00 0.00 0.00 1013.5
20260831214640 94 103 5.0 8.0 0.00 0.00 0.00 1013.5
20260831214206 95 116 3.0 9.0 0.00 0.00 0.00 1013.6
20260831213640 95 119 6.0 9.0 0.00 0.00 0.00 1013.6
20260831213148 95 113 6.0 8.0 0.00 0.00 0.00 1013.6
20260831212622 95 130 3.0 9.0 0.00 0.00 0.00 1013.6
20260831212119 94 115 4.0 9.0 0.00 0.00 0.00 1013.7
20260831211647 94 154 6.0 11.0 0.00 0.00 0.00 1013.8
20260831211202 94 136 4.0 11.0 0.00 0.00 0.00 1013.9
20260831210636 95 135 5.0 10.0 0.00 0.00 0.00 1013.9
20260831210150 95 144 5.0 8.0 0.00 0.00 0.00 1014.1
20260831205620 95 111 5.0 9.0 0.00 0.00 0.00 1014.2
20260831205156 95 113 5.0 12.0 0.00 0.00 0.00 1014.2
20260831204726 96 125 7.0 12.0 0.00 0.00 0.00 1014.3
20260831204133 97 109 7.0 13.0 0.00 0.00 0.00 1014.3
20260831203709 96 177 8.0 13.0 0.00 0.00 0.00 1014.5
20260831203144 95 180 5.0 10.0 0.00 0.00 0.00 1014.5
20260831202712 96 83 5.0 10.0 0.00 0.00 0.00 1014.5
20260831202325 95 132 6.0 10.0 0.00 0.00 0.00 1014.7
20260831201644 95 171 6.0 10.0 0.00 0.00 0.00 1014.7
20260831200613 95 145 5.0 12.0 0.00 0.00 0.00 1014.9
20260831200148 95 123 6.0 11.0 0.00 0.00 0.00 1015.1
20260831195654 95 132 5.0 11.0 0.00 0.00 0.00 1015.2
20260831195130 95 129 7.0 12.0 0.00 0.00 0.00 1015.4
20260831194700 95 121 7.0 12.0 0.00 0.00 0.00 1015.3
20260831194130 95 93 5.0 13.0 0.00 0.00 0.00 1015.4
20260831193704 95 144 6.0 13.0 0.00 0.00 0.00 1015.4
20260831193146 95 159 7.0 13.0 0.00 0.00 0.00 1015.4
20260831192615 95 167 6.0 16.0 0.00 0.00 0.00 1015.5
20260831192124 94 186 8.0 16.0 0.00 0.00 0.00 1015.6
20260831191638 93 229 5.0 14.0 0.00 0.00 0.00 1015.6
20260831191147 93 158 5.0 14.0 0.00 0.00 0.00 1015.8
20260831190617 94 194 6.0 13.0 0.00 0.00 0.00 1015.9
20260831190153 94 109 8.0 13.0 0.00 0.00 0.00 1015.9
20260831185621 93 123 5.0 14.0 0.00 0.00 0.00 1015.9
20260831185149 93 132 7.0 14.0 0.00 0.00 0.00 1015.9
20260831184629 94 143 6.0 13.0 0.00 0.00 0.00 1016.0
20260831184157 94 155 9.0 13.0 0.00 0.00 0.00 1016.0
20260831183650 93 200 5.0 10.0 0.00 0.00 0.00 1016.1
20260831183119 93 125 5.0 10.0 0.00 0.00 0.00 1016.2
20260831182656 92 153 6.0 11.0 0.00 0.00 0.00 1016.2
20260831182125 92 196 6.0 13.0 0.00 0.00 0.00 1016.3
20260831181701 92 143 4.0 13.0 0.00 0.00 0.00 1016.4
20260831181207 92 94 7.0 13.0 0.00 0.00 0.00 1016.4
20260831180643 92 109 6.0 13.0 0.00 0.00 0.00 1016.4
20260831180202 92 132 5.0 13.0 0.00 0.00 0.00 1016.5
20260831175614 92 174 5.0 12.0 0.00 0.00 0.00 1016.5
20260831175151 92 196 5.0 12.0 0.00 0.00 0.00 1016.6
20260831174720 92 163 8.0 12.0 0.00 0.00 0.00 1016.7
20260831174136 91 166 5.0 14.0 0.00 0.00 0.00 1016.6
20260831173645 91 143 8.0 14.0 0.00 0.00 0.00 1016.7
20260831173153 91 136 8.0 12.0 0.00 0.00 0.00 1016.8
20260831172630 91 129 7.0 11.0 0.00 0.00 0.00 1016.8
20260831172158 91 131 7.0 11.0 0.00 0.00 0.00 1016.8
20260831171634 91 83 5.0 11.0 0.00 0.00 0.00 1016.7
20260831171201 90 80 3.0 13.0 0.00 0.00 0.00 1016.8
20260831170641 90 100 8.0 13.0 0.00 0.00 0.00 1016.9
20260831170147 90 192 5.0 9.0 0.00 0.00 0.00 1016.9
20260831165623 90 143 7.0 11.0 0.00 0.00 0.00 1016.9
20260831165151 90 128 6.0 11.0 0.00 0.00 0.00 1017.0
20260831164619 90 138 7.0 11.0 0.00 0.00 0.00 1016.9
20260831164135 90 155 6.0 13.0 0.00 0.00 0.00 1016.9
20260831163705 90 165 8.0 13.0 0.00 0.00 0.00 1016.9
20260831163140 90 234 6.0 10.0 0.00 0.00 0.00 1016.9
20260831162144 90 151 6.0 12.0 0.00 0.00 0.00 1017.1
20260831161651 89 203 6.0 12.0 0.00 0.00 0.00 1017.0
20260831161130 89 180 6.0 10.0 0.00 0.00 0.00 1017.0
20260831160658 89 168 4.0 11.0 0.00 0.00 0.00 1017.0
20260831160133 88 198 7.0 11.0 0.00 0.00 0.00 1017.0
20260831155659 88 151 6.0 11.0 0.00 0.00 0.00 1016.9
20260831155212 88 168 3.0 11.0 0.00 0.00 0.00 1016.9
20260831154642 87 196 6.0 11.0 0.00 0.00 0.00 1016.9
20260831154207 87 154 4.0 11.0 0.00 0.00 0.00 1016.8
20260831153643 87 155 7.0 11.0 0.00 0.00 0.00 1016.8
20260831153117 86 204 5.0 12.0 0.00 0.00 0.00 1016.8
20260831152652 86 128 7.0 12.0 0.00 0.00 0.00 1016.8
20260831152122 86 151 6.0 12.0 0.00 0.00 0.00 1016.8
20260831151637 85 200 8.0 12.0 0.00 0.00 0.00 1016.7
20260831151147 85 199 8.0 11.0 0.00 0.00 0.00 1016.8
20260831150716 85 209 6.0 11.0 0.00 0.00 0.00 1016.7
20260831150132 84 184 5.0 9.0 0.00 0.00 0.00 1016.8
20260831145701 84 213 5.0 11.0 0.00 0.00 0.00 1016.8
20260831145138 83 181 6.0 11.0 0.00 0.00 0.00 1016.7
20260831144707 83 187 6.0 11.0 0.00 0.00 0.00 1016.7
20260831144147 82 188 6.0 14.0 0.00 0.00 0.00 1016.6
20260831143616 82 184 8.0 14.0 0.00 0.00 0.00 1016.7
20260831143124 81 232 5.0 12.0 0.00 0.00 0.00 1016.7
20260831142700 81 192 7.0 11.0 0.00 0.00 0.00 1016.6
20260831142130 80 128 5.0 11.0 0.00 0.00 0.00 1016.7
20260831141143 79 148 5.0 10.0 0.00 0.00 0.00 1016.7
20260831140651 79 166 3.0 8.0 0.00 0.00 0.00 1016.6
20260831140128 79 202 4.0 10.0 0.00 0.00 0.00 1016.6
20260831135657 79 204 6.0 10.0 0.00 0.00 0.00 1016.6
20260831135212 78 158 3.0 6.0 0.00 0.00 0.00 1016.5
20260831134625 78 156 2.0 5.0 0.00 0.00 0.00 1016.5
20260831134202 78 139 0.0 2.0 0.00 0.00 0.00 1016.5
20260831133632 77 139 0.0 2.0 0.00 0.00 0.00 1016.4
20260831132623 77 139 0.0 2.0 0.00 0.00 0.00 1016.4
20260831132152 76 139 0.0 0.0 0.00 0.00 0.00 1016.4
20260831131628 76 139 0.0 0.0 0.00 0.00 0.00 1016.4
20260831131158 76 139 0.0 0.0 0.00 0.00 0.00 1016.4
20260831130638 75 139 0.0 0.0 0.00 0.00 0.00 1016.4
20260831130205 75 140 0.0 0.0 0.00 0.00 0.00 1016.4
20260831125621 75 140 0.0 0.0 0.00 0.00 0.00 1016.5
20260831125127 75 140 0.0 0.0 0.00 0.00 0.00 1016.4
20260831124703 75 140 0.0 0.0 0.00 0.00 0.00 1016.4
20260831124132 75 140 0.0 0.0 0.00 0.00 0.00 1016.3
20260831123703 75 140 0.0 0.0 0.00 0.00 0.00 1016.3
20260831123131 75 140 0.0 0.0 0.00 0.00 0.00 1016.1
20260831122701 75 139 0.0 0.0 0.00 0.00 0.00 1016.0
20260831122142 75 140 0.0 0.0 0.00 0.00 0.00 1016.0
20260831121711 75 139 0.0 0.0 0.00 0.00 0.00 1016.0
20260831121146 75 139 0.0 0.0 0.00 0.00 0.00 1015.8
20260831120615 75 140 0.0 0.0 0.00 0.00 0.00 1015.7
20260831120152 75 140 0.0 0.0 0.00 0.00 0.00 1015.8
20260831115621 75 140 0.0 0.0 0.00 0.00 0.00 1015.7
20260831115158 75 140 0.0 0.0 0.00 0.00 0.00 1015.7
20260831114725 75 139 0.0 0.0 0.00 0.00 0.00 1015.8
20260831114129 76 139 0.0 0.0 0.00 0.00 0.00 1015.7
20260831113706 76 140 0.0 0.0 0.00 0.00 0.00 1015.7
20260831113118 76 140 0.0 0.0 0.00 0.00 0.00 1015.7
20260831112655 76 140 0.0 0.0 0.00 0.00 0.00 1015.7
20260831112125 76 139 0.0 2.0 0.00 0.00 0.00 1015.8
20260831111702 76 139 1.0 4.0 0.00 0.00 0.00 1015.7
20260831111148 75 161 2.0 4.0 0.00 0.00 0.00 1015.8
20260831110703 75 130 1.0 3.0 0.00 0.00 0.00 1015.8
20260831110131 75 131 0.0 4.0 0.00 0.00 0.00 1015.8
20260831105640 75 65 0.0 2.0 0.00 0.00 0.00 1015.8
20260831105214 76 65 0.0 2.0 0.00 0.00 0.00 1015.8
20260831104723 76 65 0.0 2.0 0.00 0.00 0.00 1015.8
20260831104129 76 65 1.0 2.0 0.00 0.00 0.00 1015.9
20260831103706 76 65 0.0 1.0 0.00 0.00 0.00 1015.8
20260831103118 76 65 0.0 1.0 0.00 0.00 0.00 1015.9
20260831102655 76 65 0.0 2.0 0.00 0.00 0.00 1015.8
20260831102225 76 65 1.0 2.0 0.00 0.00 0.00 1015.9
20260831101640 76 105 1.0 2.0 0.00 0.00 0.00 1016.0
20260831101145 76 105 0.0 0.0 0.00 0.00 0.00 1016.0
20260831100622 76 105 0.0 0.0 0.00 0.00 0.00 1016.0
20260831100149 76 105 0.0 0.0 0.00 0.00 0.00 1016.0
20260831095626 76 105 0.0 0.0 0.00 0.00 0.00 1015.9
20260831095154 76 105 0.0 0.0 0.00 0.00 0.00 1016.0
20260831094724 76 105 0.0 0.0 0.00 0.00 0.00 1016.0
20260831094141 76 105 0.0 0.0 0.00 0.00 0.00 1015.9
20260831093800 76 105 0.0 0.0 0.00 0.00 0.00 1015.8
20260831092625 76 105 0.0 2.0 0.00 0.00 0.00 1015.8
20260831092201 76 105 0.0 2.0 0.00 0.00 0.00 1015.9
20260831091630 76 105 1.0 2.0 0.00 0.00 0.00 1015.8
20260831091138 77 105 1.0 2.0 0.00 0.00 0.00 1015.8
20260831090613 77 105 0.0 0.0 0.00 0.00 0.00 1015.8
20260831090143 77 105 0.0 0.0 0.00 0.00 0.00 1015.8
20260831085617 77 105 0.0 0.0 0.00 0.00 0.00 1015.8
20260831085146 77 105 0.0 0.0 0.00 0.00 0.00 1015.8
20260831084626 77 105 0.0 0.0 0.00 0.00 0.00 1015.8
20260831084155 77 105 0.0 0.0 0.00 0.00 0.00 1015.8
20260831083632 77 105 0.0 0.0 0.00 0.00 0.00 1015.8
20260831083141 77 105 0.0 1.0 0.00 0.00 0.00 1015.9
20260831082711 77 105 0.0 1.0 0.00 0.00 0.00 1016.0
20260831082119 77 105 0.0 1.0 0.00 0.00 0.00 1016.0
20260831081656 77 105 0.0 1.0 0.00 0.00 0.00 1016.0
20260831081125 78 105 0.0 0.0 0.00 0.00 0.00 1016.0
20260831080702 78 105 0.0 0.0 0.00 0.00 0.00 1016.0
20260831080135 78 105 0.0 1.0 0.00 0.00 0.00 1015.9
20260831075612 78 105 0.0 2.0 0.00 0.00 0.00 1016.0
20260831075141 78 105 0.0 4.0 0.00 0.00 0.00 1016.0
20260831074657 78 105 1.0 4.0 0.00 0.00 0.00 1016.0
20260831074126 79 132 1.0 2.0 0.00 0.00 0.00 1016.1
20260831073703 79 132 1.0 2.0 0.00 0.00 0.00 1016.0
20260831073132 79 132 1.0 2.0 0.00 0.00 0.00 1015.9
20260831072708 79 132 1.0 2.0 0.00 0.00 0.00 1015.9
20260831072131 79 152 1.0 5.0 0.00 0.00 0.00 1015.9
20260831071706 79 152 1.0 6.0 0.00 0.00 0.00 1016.0
20260831071139 79 152 3.0 6.0 0.00 0.00 0.00 1016.0
20260831070707 79 125 2.0 4.0 0.00 0.00 0.00 1016.0
20260831070143 79 117 1.0 6.0 0.00 0.00 0.00 1015.9
20260831065623 80 124 3.0 6.0 0.00 0.00 0.00 1016.0
20260831065129 80 115 4.0 6.0 0.00 0.00 0.00 1016.1
20260831064617 80 100 2.0 6.0 0.00 0.00 0.00 1016.1
20260831064132 80 111 3.0 7.0 0.00 0.00 0.00 1016.1
20260831063621 80 154 5.0 8.0 0.00 0.00 0.00 1016.1
20260831063122 80 105 5.0 8.0 0.00 0.00 0.00 1016.1
20260831062631 81 116 1.0 8.0 0.00 0.00 0.00 1016.0
20260831062129 81 160 4.0 8.0 0.00 0.00 0.00 1016.1
20260831061618 81 128 4.0 11.0 0.00 0.00 0.00 1016.0
20260831061117 81 154 6.0 12.0 0.00 0.00 0.00 1015.9
20260831060626 81 155 5.0 12.0 0.00 0.00 0.00 1015.9
20260831060126 81 138 3.0 10.0 0.00 0.00 0.00 1015.9
20260831055633 81 169 4.0 11.0 0.00 0.00 0.00 1015.9
20260831055130 81 138 5.0 14.0 0.00 0.00 0.00 1015.8
20260831054639 81 161 5.0 10.0 0.00 0.00 0.00 1015.8
20260831054121 81 150 3.0 7.0 0.00 0.00 0.00 1015.6
20260831053630 82 128 5.0 7.0 0.00 0.00 0.00 1015.6
20260831053129 82 138 2.0 8.0 0.00 0.00 0.00 1015.7
20260831052636 82 143 5.0 8.0 0.00 0.00 0.00 1015.6
20260831052116 82 131 4.0 8.0 0.00 0.00 0.00 1015.6
20260831051617 82 126 5.0 8.0 0.00 0.00 0.00 1015.6
20260831051126 83 121 5.0 7.0 0.00 0.00 0.00 1015.5
20260831050623 83 108 3.0 8.0 0.00 0.00 0.00 1015.5
20260831050122 83 132 4.0 10.0 0.00 0.00 0.00 1015.5
20260831045645 83 132 6.0 12.0 0.00 0.00 0.00 1015.4
20260831045116 83 153 7.0 12.0 0.00 0.00 0.00 1015.4
20260831044629 84 175 5.0 12.0 0.00 0.00 0.00 1015.4
20260831044136 84 146 6.0 12.0 0.00 0.00 0.00 1015.3
20260831043650 84 135 6.0 11.0 0.00 0.00 0.00 1015.3
20260831043121 84 150 5.0 10.0 0.00 0.00 0.00 1015.2
20260831042654 84 132 5.0 10.0 0.00 0.00 0.00 1015.2
20260831042121 84 126 7.0 12.0 0.00 0.00 0.00 1015.1
20260831041655 85 138 6.0 12.0 0.00 0.00 0.00 1015.1
20260831041117 85 159 6.0 12.0 0.00 0.00 0.00 1015.2
20260831040650 85 138 5.0 11.0 0.00 0.00 0.00 1015.0
20260831035640 85 146 6.0 10.0 0.00 0.00 0.00 1015.0
20260831035245 85 142 7.0 10.0 0.00 0.00 0.00 1014.9
20260831034703 86 136 4.0 8.0 0.00 0.00 0.00 1014.9
20260831034132 86 136 4.0 10.0 0.00 0.00 0.00 1014.8
20260831033628 86 151 6.0 12.0 0.00 0.00 0.00 1014.8
20260831033136 86 121 5.0 13.0 0.00 0.00 0.00 1014.8
20260831032648 86 142 8.0 13.0 0.00 0.00 0.00 1014.8
20260831032210 86 133 6.0 9.0 0.00 0.00 0.00 1014.7
20260831031644 86 143 3.0 9.0 0.00 0.00 0.00 1014.7
20260831031207 86 141 4.0 9.0 0.00 0.00 0.00 1014.6
20260831030704 87 144 3.0 7.0 0.00 0.00 0.00 1014.6
20260831030129 87 180 3.0 9.0 0.00 0.00 0.00 1014.5
20260831025658 87 171 5.0 9.0 0.00 0.00 0.00 1014.5
20260831025147 87 113 5.0 9.0 0.00 0.00 0.00 1014.3
20260831024638 87 133 6.0 9.0 0.00 0.00 0.00 1014.2
20260831024115 87 161 5.0 9.0 0.00 0.00 0.00 1014.1
20260831023632 87 149 5.0 9.0 0.00 0.00 0.00 1014.1
20260831023206 87 160 5.0 9.0 0.00 0.00 0.00 1013.9
20260831022700 87 145 6.0 10.0 0.00 0.00 0.00 1013.8
20260831022125 88 130 7.0 11.0 0.00 0.00 0.00 1013.7
20260831021653 88 148 7.0 11.0 0.00 0.00 0.00 1013.5
20260831021202 88 135 6.0 9.0 0.00 0.00 0.00 1013.5
20260831020636 88 149 4.0 10.0 0.00 0.00 0.00 1013.4
20260831020145 88 122 6.0 10.0 0.00 0.00 0.00 1013.3
20260831015618 89 105 5.0 9.0 0.00 0.00 0.00 1013.3
20260831015155 89 153 5.0 9.0 0.00 0.00 0.00 1013.2
20260831014624 89 119 6.0 10.0 0.00 0.00 0.00 1013.2
20260831014200 89 120 7.0 10.0 0.00 0.00 0.00 1013.2
20260831013630 90 107 3.0 13.0 0.00 0.00 0.00 1013.1
20260831013117 90 134 6.0 13.0 0.00 0.00 0.00 1013.0
20260831012630 90 134 5.0 8.0 0.00 0.00 0.00 1013.0